Location: Cork
(51.8990°N, 8.4960°W)
Time: 01:33:56
(UTC+01:00)

Iridium 66 - Visible Passes

Search period start: 29 July 2014 00:00
Search period end: 08 August 2014 00:00
Orbit: 776 x 779 km, 86.4° (Epoch: 28 July)

Date Brightness Start Highest point End Pass type
(mag) Time Alt. Az. Time Alt. Az. Time Alt. Az.
29 Jul 7.6 00:24:52 17° ESE 00:27:12 23° ENE 00:31:15 10° NNE visible
29 Jul 6.3 02:05:20 33° SSW 02:07:31 59° W 02:12:42 10° N visible
29 Jul 8.4 03:48:24 10° WNW 03:49:28 11° WNW 03:50:31 10° NW visible
29 Jul 8.1 23:51:27 10° ESE 23:54:03 14° ENE 23:56:45 10° NE visible
30 Jul 6.0 01:31:56 39° S 01:33:56 84° E 01:39:11 10° N visible
30 Jul 8.0 03:12:24 11° WSW 03:15:24 17° WNW 03:18:49 10° NNW visible
31 Jul 6.4 00:58:31 33° SE 01:00:29 51° E 01:05:31 10° NNE visible
31 Jul 7.4 02:38:59 19° WSW 02:41:30 27° WNW 02:45:55 10° NNW visible
01 Aug 7.1 00:25:06 23° ESE 00:27:08 31° E 00:31:40 10° NNE visible
01 Aug 6.7 02:05:34 29° SW 02:07:43 44° WNW 02:12:42 10° N visible
01 Aug 7.8 23:51:40 15° ESE 23:53:54 19° ENE 23:57:31 10° NNE visible
02 Aug 6.1 01:32:09 40° SSW 01:34:03 72° W 01:39:17 10° N visible
02 Aug 8.3 03:13:27 10° W 03:15:48 13° WNW 03:18:09 10° NW visible
02 Aug 8.2 23:19:02 10° E 23:20:47 12° ENE 23:22:33 10° NE visible
03 Aug 6.1 00:58:43 41° SSE 01:00:31 69° E 01:05:43 10° N visible
03 Aug 7.8 02:39:11 15° WSW 02:41:48 21° WNW 02:45:41 10° NNW visible
04 Aug 6.7 00:25:16 31° SE 00:27:06 42° E 00:31:59 10° NNE visible
04 Aug 7.2 02:05:45 24° WSW 02:07:56 33° WNW 02:12:38 10° N visible
04 Aug 7.4 23:51:50 20° ESE 23:53:48 26° E 23:58:02 10° NNE visible
05 Aug 6.5 01:32:18 35° SW 01:34:12 53° W 01:39:20 10° N visible
05 Aug 7.9 23:18:23 13° ESE 23:20:37 16° ENE 23:23:41 10° NE visible
06 Aug 6.0 00:58:51 44° S 01:00:36 87° W 01:05:51 10° N visible
06 Aug 8.2 02:39:19 11° W 02:42:09 16° WNW 02:45:16 10° NNW visible
07 Aug 6.2 00:25:24 38° SE 00:27:06 57° E 00:32:13 10° NNE visible
07 Aug 7.7 02:05:52 18° WSW 02:08:13 25° WNW 02:12:28 10° NNW visible
07 Aug 6.9 23:51:56 27° ESE 23:53:44 34° E 23:58:24 10° NNE visible
